STARLINK-31704, 59586

Orbit data source: Space-Track

STARLINK-31704, 59586 is a payload satellite owned by SpaceX/Seattle (US) in LEO that was launched on Tue, 23 Apr 2024 UTC via an FALCON 9 launch vehicle from the Air Force Eastern Test Range (AFETR). Payload-class satellites include a variety of spacecraft equipped with specific instruments for various scientific and technological missions. These include communications satellites like Starlink; space stations such as the ISS; scientific satellites like the Hubble; Earth observation satellites from companies like Planet Labs, Umbra, and HawkEye 360; GPS; miniature CubeSats for education and research; and military/defense satellites.

Loading next visibility...
Identifier
59586, 2024-076Y
Orbit
LEO
Country
Flag of USUS
Related business
Manufacturer
SpaceX/Seattle
Mission
Operational Commercial Communications
Bus & Motor
STARLINK V2M, Unknown motor
Mass
730 kg wet, ~700 kg dry
Launch date (UTC)
2024-04-23 (2 years ago)
Launch vehicle
FALCON 9
Launch site
Air Force Eastern Test Range (AFETR)
Object type
Payload
Rocket body
Debris
Shape & HBR
Box + 2 Pan, 17.7 m
Radar Cross Section
33.884 m², Large (>1 m²)

Expand to show TLE details & history
Last TLE update: 12 hours ago

TLE from 12 hours ago
0 STARLINK-31704
1 59586U 24076Y   26035.58324910  .00009704  00000-0  33934-3 0  9995
2 59586  42.9994 151.9243 0002788 325.7469  34.3203 15.29677195101939
Epoch: 2026-02-04T13:59Z
TLE epoch observation values (Epoch: 2026-02-04T13:59:52.722Z)
Latitude
-0.00003°
Longitude
167.20685°
Altitude
474.974 km
Speed
7.631 km/s
True Right ascension
10h 07m 41s
True Declination
0° 00' 00"
Sunlit
Object was in full shadow at epoch
Visualization orbit readout
Latitude
Unknown
Longitude
Unknown
Altitude
Unknown
Speed
Unknown
Apparent Right ascension
Unknown
Apparent Declination
Unknown
Sunlit
N/A
Visualization observer readout
Local Sidereal Time
03:53:14
Azimuth
Unknown
Elevation
Unknown
Doppler factor
Unknown
Orbital elements
Apogee altitude
480.635 km
Perigee altitude
476.812 km
Semi-major axis
6,856.861 km
Eccentricity
0.00028
Inclination
42.9994°
RAAN
151.9243°
Arg. of periapsis
325.7469°
True anomaly
34.33832°
Mean anomaly
34.3203°
Eccentric anomaly
34.32931°
Mean motion
3.82257 °/min
Orbital period
94.18 mins
BSTAR
0.00033934
Loading maneuver chart data...
Computing Atmospheric mass density...
Loading historical data...
Loading historical data...
Loading historical data...
Loading historical data...
Loading historical data...
Loading historical data...
Loading historical data...

Documentation

Showing up to 5 results
|